INSAT-3DR (41752 NORAD) Tracking and Keplerian Element Data

This shows tracking and keplerian element data for the satellite.

Feedback or suggestion? Click here.




ElementValue
Catalog41752
NameINSAT-3DR
Epoch Orbit681
Epoch Day197.97554413
Epoch Year2018
RAAN52.9319
Inclination0.0135
Eccentricity0.0006045
Argument of Perigee223.5259
Mean Anonmoly83.4734
Mean Motion1.0027132
Decay Rate-9.7E-07
L11 41752U 16054A 18197.97554413 -.00000097 00000-0 00000-0 0 9996
L22 41752 0.0135 52.9319 0006045 223.5259 83.4734 1.00271320 6812

Live tracking and technical data element details for INSAT-3DR (NORAD 41752). INSAT-3DR can be tracked NOW for your location showing map with azimuth and elevation plus other details from your city location.

Track the satellite on the map from your city or location and see movement details for azimuth, elevation, latitude, longitude, range, height, and movement on the map or in text.







IsCatalogInMostPopularTable: catalog: 41752, numindb: 75
Update: records affected: 1



GetName: 41752 INSAT-3DR

Hit Count: updated at: Wed, 18 Jul 2018 20:20:01 GMT